Location: Unspecified
(0.0000°N, 0.0000°E)
Time: 16:07:29
(UTC+00:00)

Altair - Pass Details

Date: 29 September 2023
Orbit: 1501 x 1682 km, 47.2° (Epoch: 06 December)

Event Time Altitude Azimuth Distance (km) Brightness Sun altitude
Rises 22:31:23 0° 211° (SSW) 4,638 - -70.1°
Reaches altitude 10° 22:34:28 10° 207° (SSW) 3,665 - -70.9°
Maximum altitude 22:43:29 58° 129° (SE) 1,749 - -73.1°
Drops below altitude 10° 22:52:46 10° 53° (NE) 3,769 - -75.4°
Sets 22:55:57 0° 49° (NE) 4,778 - -76.2°
